When you browse on this site, cookies collect data to enhance your experience and personalize the content and advertising you see.
Visit our Privacy Policy to learn more. By continuing to use the site, you agree to this use of cookies and data.
  • In Latvia
  • List of Countries
  • For 7 days
  • Water Temperature
  • Satellite Maps
  • Weather Map
  • Weather Widgets
  • user-avatar
    Login

    Hourly Weather Naftalan

    Today, 16 June, Sunday

    Time Temperature Precipitation Wind Pressure Humidity
    00:00 +26°C° 0 mm 2 mps 759 mmHg 61%
    01:00 +26°C° 0 mm 2 mps 759 mmHg 63%
    02:00 +25°C° 0 mm 3 mps 759 mmHg 65%
    03:00 +25°C° 0 mm 3 mps 759 mmHg 66%
    04:00 +26°C° 0 mm 3 mps 759 mmHg 64%
    05:00 +26°C° 0 mm 2 mps 759 mmHg 62%
    06:00 +27°C° 0 mm 2 mps 759 mmHg 59%
    07:00 +28°C° 0 mm 2 mps 759 mmHg 53%
    08:00 +29°C° 0 mm 2 mps 759 mmHg 48%
    09:00 +30°C° 0 mm 2 mps 759 mmHg 42%
    10:00 +31°C° 0 mm 3 mps 759 mmHg 39%
    11:00 +33°C° 0 mm 3 mps 758 mmHg 37%
    12:00 +34°C° 0 mm 4 mps 758 mmHg 34%
    13:00 +34°C° 0 mm 4 mps 758 mmHg 36%
    14:00 +34°C° 0 mm 4 mps 757 mmHg 38%
    15:00 +33°C° 0 mm 5 mps 757 mmHg 40%
    16:00 +33°C° 0 mm 4 mps 757 mmHg 44%
    17:00 +32°C° 0 mm 4 mps 757 mmHg 47%
    18:00 +30°C° 0 mm 4 mps 757 mmHg 51%
    19:00 +30°C° 0 mm 3 mps 757 mmHg 56%
    20:00 +29°C° 0 mm 3 mps 757 mmHg 61%
    21:00 +28°C° 0 mm 3 mps 757 mmHg 66%
    22:00 +27°C° 0 mm 2 mps 757 mmHg 68%
    23:00 +27°C° 0 mm 2 mps 757 mmHg 70%

    Tomorrow, 17 June, Monday

    Time Temperature Precipitation Wind Pressure Humidity
    00:00 +27°C° 0 mm 1 mps 756 mmHg 72%
    01:00 +27°C° 0 mm 2 mps 756 mmHg 70%
    02:00 +26°C° 0 mm 3 mps 756 mmHg 69%
    03:00 +26°C° 0 mm 4 mps 756 mmHg 67%
    04:00 +27°C° 0 mm 4 mps 756 mmHg 65%
    05:00 +27°C° 0 mm 3 mps 756 mmHg 62%
    06:00 +28°C° 0 mm 3 mps 756 mmHg 59%
    07:00 +29°C° 0 mm 2 mps 757 mmHg 54%
    08:00 +30°C° 0 mm 2 mps 757 mmHg 50%
    09:00 +31°C° 0 mm 2 mps 757 mmHg 45%
    10:00 +32°C° 0 mm 2 mps 757 mmHg 43%
    11:00 +34°C° 0 mm 2 mps 757 mmHg 40%
    12:00 +35°C° 0 mm 3 mps 756 mmHg 37%
    13:00 +35°C° 0 mm 3 mps 756 mmHg 37%
    14:00 +35°C° 0 mm 4 mps 756 mmHg 37%
    15:00 +35°C° 0 mm 5 mps 756 mmHg 36%
    16:00 +34°C° 0 mm 4 mps 756 mmHg 40%
    17:00 +33°C° 0 mm 4 mps 756 mmHg 44%
    18:00 +30°C° 0 mm 4 mps 756 mmHg 47%
    19:00 +30°C° 0 mm 3 mps 756 mmHg 50%
    20:00 +29°C° 0 mm 3 mps 757 mmHg 53%
    21:00 +28°C° 0 mm 2 mps 757 mmHg 56%
    22:00 +27°C° 0 mm 2 mps 757 mmHg 57%
    23:00 +27°C° 0 mm 2 mps 757 mmHg 58%

    Day after tomorrow, 18 June, Tuesday

    Time Temperature Precipitation Wind Pressure Humidity
    00:00 +26°C° 0 mm 1 mps 757 mmHg 60%
    01:00 +26°C° 0 mm 1 mps 757 mmHg 59%
    02:00 +26°C° 0 mm 1 mps 757 mmHg 58%
    03:00 +26°C° 0 mm 1 mps 757 mmHg 57%
    04:00 +26°C° 0 mm 1 mps 757 mmHg 55%
    05:00 +27°C° 0 mm 1 mps 758 mmHg 52%
    06:00 +28°C° 0 mm 1 mps 758 mmHg 50%
    07:00 +29°C° 0 mm 1 mps 758 mmHg 46%
    08:00 +31°C° 0 mm 1 mps 758 mmHg 41%
    09:00 +32°C° 0 mm 1 mps 758 mmHg 37%
    10:00 +34°C° 0 mm 2 mps 758 mmHg 36%
    11:00 +34°C° 0 mm 3 mps 758 mmHg 35%
    12:00 +35°C° 0 mm 4 mps 757 mmHg 34%
    13:00 +35°C° 0 mm 4 mps 757 mmHg 35%
    14:00 +35°C° 0 mm 4 mps 757 mmHg 37%
    15:00 +34°C° 0 mm 4 mps 756 mmHg 38%
    16:00 +34°C° 0 mm 4 mps 756 mmHg 39%
    17:00 +33°C° 0 mm 4 mps 756 mmHg 40%
    18:00 +32°C° 0 mm 4 mps 757 mmHg 41%
    19:00 +30°C° 0 mm 4 mps 757 mmHg 45%
    20:00 +29°C° 0 mm 4 mps 758 mmHg 48%
    21:00 +28°C° 0 mm 3 mps 758 mmHg 52%
    22:00 +28°C° 0 mm 3 mps 758 mmHg 54%
    23:00 +27°C° 0 mm 3 mps 758 mmHg 55%

    19 June, Wednesday

    Time Temperature Precipitation Wind Pressure Humidity
    00:00 +27°C° 0 mm 2 mps 758 mmHg 57%
    01:00 +27°C° 0 mm 3 mps 758 mmHg 55%
    02:00 +26°C° 0 mm 3 mps 757 mmHg 53%
    03:00 +26°C° 0 mm 3 mps 757 mmHg 51%
    04:00 +27°C° 0 mm 3 mps 757 mmHg 48%
    05:00 +27°C° 0 mm 3 mps 757 mmHg 45%
    06:00 +28°C° 0 mm 3 mps 758 mmHg 41%
    07:00 +30°C° 0 mm 3 mps 758 mmHg 38%
    08:00 +32°C° 0 mm 4 mps 758 mmHg 35%
    09:00 +34°C° 0 mm 4 mps 758 mmHg 31%
    10:00 +34°C° 0 mm 5 mps 758 mmHg 32%
    11:00 +35°C° 0 mm 6 mps 758 mmHg 32%
    12:00 +35°C° 0 mm 7 mps 758 mmHg 32%
    13:00 +35°C° 0 mm 8 mps 757 mmHg 32%
    14:00 +35°C° 0 mm 9 mps 757 mmHg 33%
    15:00 +34°C° 0 mm 9 mps 757 mmHg 34%
    16:00 +34°C° 0 mm 8 mps 757 mmHg 35%
    17:00 +33°C° 0 mm 7 mps 757 mmHg 37%
    18:00 +32°C° 0 mm 7 mps 757 mmHg 38%
    19:00 +30°C° 0 mm 5 mps 757 mmHg 43%
    20:00 +29°C° 0 mm 4 mps 757 mmHg 48%
    21:00 +27°C° 0 mm 3 mps 758 mmHg 53%
    22:00 +27°C° 0 mm 3 mps 758 mmHg 55%
    23:00 +27°C° 0 mm 2 mps 758 mmHg 57%

    20 June, Thursday

    Time Temperature Precipitation Wind Pressure Humidity
    00:00 +26°C° 0 mm 2 mps 758 mmHg 59%
    01:00 +26°C° 0 mm 2 mps 758 mmHg 58%
    02:00 +26°C° 0 mm 2 mps 757 mmHg 57%
    03:00 +25°C° 0 mm 3 mps 757 mmHg 57%
    04:00 +26°C° 0 mm 3 mps 757 mmHg 53%
    05:00 +27°C° 0 mm 3 mps 757 mmHg 49%
    06:00 +27°C° 0 mm 3 mps 757 mmHg 46%
    07:00 +29°C° 0 mm 3 mps 757 mmHg 41%
    08:00 +32°C° 0 mm 4 mps 757 mmHg 37%
    09:00 +34°C° 0 mm 4 mps 757 mmHg 32%
    10:00 +34°C° 0 mm 6 mps 757 mmHg 33%
    11:00 +34°C° 0 mm 8 mps 757 mmHg 34%
    12:00 +35°C° 0 mm 9 mps 757 mmHg 36%
    13:00 +34°C° 0 mm 9 mps 756 mmHg 39%
    14:00 +34°C° 0 mm 8 mps 756 mmHg 43%
    15:00 +33°C° 0 mm 8 mps 756 mmHg 47%
    16:00 +32°C° 0 mm 8 mps 756 mmHg 49%
    17:00 +32°C° 0 mm 7 mps 756 mmHg 51%
    18:00 +30°C° 0 mm 7 mps 756 mmHg 54%
    19:00 +29°C° 0 mm 7 mps 757 mmHg 54%
    20:00 +29°C° 0 mm 7 mps 757 mmHg 54%
    21:00 +28°C° 0 mm 7 mps 758 mmHg 54%
    22:00 +28°C° 0 mm 7 mps 758 mmHg 53%
    23:00 +28°C° 0 mm 7 mps 758 mmHg 51%

    21 June, Friday

    Time Temperature Precipitation Wind Pressure Humidity
    00:00 +28°C° 0 mm 7 mps 758 mmHg 49%
    01:00 +27°C° 0 mm 6 mps 758 mmHg 51%
    02:00 +27°C° 0 mm 5 mps 758 mmHg 53%
    03:00 +26°C° 0 mm 4 mps 758 mmHg 55%
    04:00 +27°C° 0.1 mm 4 mps 758 mmHg 54%
    05:00 +27°C° 0.1 mm 4 mps 758 mmHg 53%
    06:00 +27°C° 0.1 mm 3 mps 758 mmHg 52%
    07:00 +29°C° 0 mm 4 mps 758 mmHg 47%
    08:00 +30°C° 0 mm 5 mps 759 mmHg 43%
    09:00 +32°C° 0 mm 6 mps 759 mmHg 39%
    10:00 +33°C° 0 mm 7 mps 759 mmHg 38%
    11:00 +33°C° 0 mm 8 mps 759 mmHg 38%
    12:00 +34°C° 0 mm 9 mps 759 mmHg 38%
    13:00 +34°C° 0 mm 10 mps 759 mmHg 37%
    14:00 +34°C° 0 mm 10 mps 759 mmHg 37%
    15:00 +34°C° 0 mm 10 mps 759 mmHg 37%
    16:00 +33°C° 0 mm 10 mps 759 mmHg 39%
    17:00 +32°C° 0 mm 9 mps 759 mmHg 41%
    18:00 +31°C° 0 mm 9 mps 759 mmHg 42%
    19:00 +29°C° 0 mm 8 mps 760 mmHg 47%
    20:00 +28°C° 0 mm 7 mps 760 mmHg 51%
    21:00 +27°C° 0 mm 5 mps 760 mmHg 55%
    22:00 +27°C° 0 mm 4 mps 760 mmHg 57%
    23:00 +26°C° 0 mm 3 mps 760 mmHg 60%
    Show more